This is the latest recevied weather packets stored in our database for station/object KE8URB. If no packets are shown the sender has not sent any weather packets the latest 10 day(s).
| Time | Temp. | Humidity | Pressure | Rain* | Wind** | Luminosity | Snow |
|---|---|---|---|---|---|---|---|
| 1788027243 | 26.11° C | 57% | 1023.3 hPa | 0 mm | - | 241 W/m² | - |
| 1788026942 | 26.11° C | 60% | 1023.2 hPa | 0 mm | - | 54 W/m² | - |
| 1788026637 | 26.11° C | 55% | 1023.7 hPa | 0 mm | - | 49 W/m² | - |
| 1788026332 | 26.11° C | 54% | 1023.6 hPa | 0 mm | - | 48 W/m² | - |
| 1788026028 | 26.11° C | 56% | 1023.5 hPa | 0 mm | - | 49 W/m² | - |
| 1788025727 | 25.56° C | 60% | 1023.7 hPa | 0 mm | - | 52 W/m² | - |
| 1788025426 | 25.56° C | 60% | 1023.7 hPa | 0 mm | - | 44 W/m² | - |
| 1788025122 | 25.56° C | 61% | 1023.8 hPa | 0 mm | - | 45 W/m² | - |
| 1788024821 | 25.56° C | 56% | 1023.9 hPa | 0 mm | - | 42 W/m² | - |
| 1788024518 | 25.56° C | 55% | 1023.8 hPa | 0 mm | - | 44 W/m² | - |
| 1788024216 | 25° C | 58% | 1024 hPa | 0 mm | - | 44 W/m² | - |
| 1788023913 | 25° C | 56% | 1023.9 hPa | 0 mm | - | 42 W/m² | - |
| 1788023608 | 25° C | 56% | 1024 hPa | 0 mm | - | 41 W/m² | - |
| 1788023304 | 25° C | 61% | 1024.2 hPa | 0 mm | - | 40 W/m² | - |
| 1788022998 | 25° C | 62% | 1024.3 hPa | 0 mm | - | 41 W/m² | - |
| 1788022696 | 25° C | 59% | 1024.2 hPa | 0 mm | - | 81 W/m² | - |
| 1788022394 | 25° C | 63% | 1024.4 hPa | 0 mm | - | 39 W/m² | - |
| 1788022094 | 24.44° C | 58% | 1024.3 hPa | 0 mm | - | 40 W/m² | - |
| 1788021788 | 24.44° C | 59% | 1024.3 hPa | 0 mm | - | 38 W/m² | - |
| 1788021488 | 24.44° C | 57% | 1024.3 hPa | 0 mm | - | 38 W/m² | - |
| 1788021181 | 24.44° C | 58% | 1024.4 hPa | 0 mm | - | 108 W/m² | - |
| 1788020877 | 23.89° C | 56% | 1024.2 hPa | 0 mm | - | 578 W/m² | - |
| 1788020571 | 23.89° C | 60% | 1024.4 hPa | 0 mm | - | 369 W/m² | - |
| 1788020268 | 23.89° C | 59% | 1024 hPa | 0 mm | - | 78 W/m² | - |
| 1788019963 | 23.89° C | 62% | 1024.3 hPa | 0 mm | - | 82 W/m² | - |
* Rain latest hour (hover to see other rain measurements)
** Current wind speed in m/s (hover to see current wind gust speed)